| time (UTC) | temp F | wind direction | speed knots | gust knots | rain 1hr in | rain 24hr in | rain mn in | humidity % | barometer mb |
| 20260831233021 | 60 | 355 | 0.0 | 1.7 | 0.00 | 0.00 | 0.00 | 81 | 1020.5 |
| 20260831231519 | 60 | 89 | 0.0 | 1.7 | 0.00 | 0.00 | 0.00 | 80 | 1020.4 |
| 20260831230017 | 61 | 79 | 0.0 | 1.7 | 0.00 | 0.00 | 0.00 | 78 | 1020.4 |
| 20260831224515 | 61 | 79 | 0.0 | 1.7 | 0.00 | 0.00 | 0.00 | 77 | 1020.4 |
| 20260831223012 | 62 | 90 | 0.0 | 2.6 | 0.00 | 0.00 | 0.00 | 75 | 1020.4 |
| 20260831221510 | 63 | 108 | 0.9 | 2.6 | 0.00 | 0.00 | 0.00 | 74 | 1020.5 |
| 20260831220007 | 63 | 19 | 0.0 | 0.0 | 0.00 | 0.00 | 0.00 | 72 | 1020.4 |
| 20260831214507 | 64 | 19 | 0.0 | 1.7 | 0.00 | 0.00 | 0.00 | 70 | 1020.4 |
| 20260831213010 | 65 | 19 | 0.9 | 2.6 | 0.00 | 0.00 | 0.00 | 68 | 1020.4 |
| 20260831211505 | 65 | 5 | 0.9 | 2.6 | 0.00 | 0.00 | 0.00 | 67 | 1020.4 |
| 20260831210004 | 66 | 5 | 0.9 | 2.6 | 0.00 | 0.02 | 0.00 | 66 | 1020.3 |
| 20260831204503 | 67 | 23 | 1.7 | 2.6 | 0.00 | 0.02 | 0.00 | 64 | 1020.2 |
| 20260831203002 | 67 | 355 | 1.7 | 3.5 | 0.00 | 0.02 | 0.00 | 63 | 1020.1 |
| 20260831201603 | 67 | 355 | 0.9 | 3.5 | 0.00 | 0.02 | 0.00 | 66 | 1020.0 |
| 20260831200058 | 69 | 321 | 0.0 | 0.9 | 0.00 | 0.02 | 0.00 | 63 | 1019.8 |
| 20260831194612 | 70 | 321 | 0.0 | 1.7 | 0.00 | 0.03 | 0.00 | 61 | 1019.7 |
| 20260831193056 | 71 | 321 | 0.0 | 1.7 | 0.00 | 0.03 | 0.00 | 54 | 1019.5 |
| 20260831191602 | 72 | 316 | 0.9 | 4.3 | 0.00 | 0.03 | 0.00 | 52 | 1019.5 |
| 20260831190145 | 73 | 300 | 0.9 | 3.5 | 0.00 | 0.03 | 0.00 | 51 | 1019.2 |
| 20260831184553 | 74 | 313 | 0.9 | 3.5 | 0.00 | 0.03 | 0.00 | 50 | 1019.1 |
| 20260831183046 | 74 | 317 | 1.7 | 6.1 | 0.00 | 0.03 | 0.00 | 49 | 1018.9 |
| 20260831181552 | 75 | 317 | 2.6 | 7.8 | 0.00 | 0.03 | 0.00 | 48 | 1018.8 |
| 20260831180044 | 76 | 284 | 2.6 | 7.8 | 0.00 | 0.03 | 0.00 | 48 | 1018.7 |
| 20260831174544 | 76 | 333 | 4.3 | 8.7 | 0.00 | 0.03 | 0.00 | 48 | 1018.6 |
| 20260831173057 | 77 | 325 | 4.3 | 8.7 | 0.00 | 0.03 | 0.00 | 47 | 1018.6 |
| 20260831171542 | 77 | 17 | 3.5 | 6.1 | 0.00 | 0.03 | 0.00 | 50 | 1018.5 |
| 20260831170042 | 77 | 307 | 2.6 | 9.6 | 0.00 | 0.03 | 0.00 | 48 | 1018.5 |
| 20260831164554 | 79 | 323 | 4.3 | 8.7 | 0.00 | 0.03 | 0.00 | 47 | 1018.4 |
| 20260831163041 | 80 | 360 | 4.3 | 10.4 | 0.00 | 0.03 | 0.00 | 46 | 1018.4 |
| 20260831161540 | 80 | 299 | 1.7 | 4.3 | 0.00 | 0.03 | 0.00 | 47 | 1018.4 |
| 20260831160038 | 80 | 328 | 0.9 | 3.5 | 0.00 | 0.03 | 0.00 | 45 | 1018.4 |
| 20260831154538 | 79 | 79 | 1.7 | 7.0 | 0.00 | 0.03 | 0.00 | 44 | 1018.4 |
| 20260831153042 | 79 | 94 | 2.6 | 4.3 | 0.00 | 0.03 | 0.00 | 46 | 1018.4 |
| 20260831151536 | 80 | 57 | 3.5 | 7.0 | 0.00 | 0.03 | 0.00 | 46 | 1018.5 |
| 20260831150036 | 80 | 350 | 0.9 | 5.2 | 0.00 | 0.03 | 0.00 | 45 | 1018.5 |
| 20260831144535 | 80 | 5 | 1.7 | 6.1 | 0.00 | 0.03 | 0.00 | 46 | 1018.6 |
| 20260831143035 | 80 | 325 | 4.3 | 7.0 | 0.00 | 0.03 | 0.00 | 46 | 1018.7 |
| 20260831141534 | 80 | 235 | 2.6 | 6.1 | 0.00 | 0.03 | 0.00 | 45 | 1018.7 |
| 20260831140032 | 79 | 236 | 2.6 | 5.2 | 0.00 | 0.03 | 0.00 | 48 | 1018.8 |
| 20260831134533 | 78 | 247 | 0.9 | 3.5 | 0.00 | 0.03 | 0.00 | 50 | 1018.8 |
| 20260831133035 | 79 | 298 | 4.3 | 7.0 | 0.00 | 0.03 | 0.00 | 48 | 1018.9 |
| 20260831131531 | 80 | 251 | 1.7 | 8.7 | 0.00 | 0.03 | 0.00 | 48 | 1018.8 |
| 20260831130030 | 80 | 282 | 3.5 | 7.8 | 0.00 | 0.03 | 0.00 | 47 | 1018.9 |
| 20260831124548 | 78 | 153 | 1.7 | 5.2 | 0.00 | 0.03 | 0.00 | 49 | 1018.9 |
| 20260831123028 | 79 | 234 | 1.7 | 7.8 | 0.00 | 0.03 | 0.00 | 46 | 1018.8 |
| 20260831121528 | 80 | 211 | 2.6 | 7.0 | 0.00 | 0.03 | 0.00 | 45 | 1018.8 |
| 20260831120024 | 79 | 250 | 1.7 | 6.1 | 0.00 | 0.03 | 0.00 | 49 | 1018.8 |
| 20260831114536 | 78 | 304 | 4.3 | 8.7 | 0.00 | 0.03 | 0.00 | 48 | 1019.0 |
| 20260831113022 | 77 | 218 | 2.6 | 7.8 | 0.00 | 0.03 | 0.00 | 49 | 1019.2 |
| 20260831111519 | 77 | 246 | 3.5 | 7.0 | 0.00 | 0.03 | 0.00 | 50 | 1019.2 |
| 20260831110018 | 76 | 339 | 1.7 | 6.1 | 0.00 | 0.03 | 0.00 | 51 | 1019.2 |
| 20260831104522 | 76 | 156 | 1.7 | 5.2 | 0.00 | 0.03 | 0.00 | 52 | 1019.2 |
| 20260831103012 | 75 | 277 | 3.5 | 8.7 | 0.00 | 0.03 | 0.00 | 54 | 1019.4 |
| 20260831101507 | 75 | 246 | 2.6 | 7.0 | 0.00 | 0.03 | 0.00 | 53 | 1019.4 |
| 20260831100005 | 75 | 300 | 4.3 | 8.7 | 0.00 | 0.03 | 0.00 | 56 | 1019.5 |
| 20260831094615 | 74 | 348 | 0.9 | 3.5 | 0.00 | 0.03 | 0.00 | 55 | 1019.6 |
| 20260831093057 | 73 | 142 | 1.7 | 5.2 | 0.00 | 0.03 | 0.00 | 58 | 1019.6 |
| 20260831091556 | 73 | 355 | 1.7 | 6.1 | 0.00 | 0.03 | 0.00 | 59 | 1019.6 |
| 20260831090058 | 73 | 207 | 2.6 | 5.2 | 0.00 | 0.03 | 0.00 | 60 | 1019.6 |
| 20260831084546 | 72 | 251 | 1.7 | 4.3 | 0.00 | 0.03 | 0.00 | 58 | 1019.5 |
| 20260831083046 | 72 | 342 | 0.0 | 4.3 | 0.00 | 0.03 | 0.00 | 62 | 1019.5 |
| 20260831081537 | 70 | 324 | 0.9 | 4.3 | 0.00 | 0.03 | 0.00 | 64 | 1019.4 |
| 20260831080033 | 70 | 242 | 1.7 | 3.5 | 0.00 | 0.03 | 0.00 | 68 | 1019.3 |
| 20260831074536 | 69 | 271 | 0.0 | 3.5 | 0.00 | 0.03 | 0.00 | 67 | 1019.2 |
| 20260831073030 | 68 | 257 | 0.9 | 3.5 | 0.00 | 0.03 | 0.00 | 69 | 1019.1 |
| 20260831071528 | 67 | 82 | 0.9 | 2.6 | 0.00 | 0.03 | 0.00 | 74 | 1019.1 |
| 20260831070028 | 65 | 295 | 1.7 | 3.5 | 0.00 | 0.03 | 0.00 | 79 | 1019.1 |
| 20260831064517 | 64 | 98 | 1.7 | 5.2 | 0.00 | 0.03 | 0.00 | 84 | 1019.1 |
| 20260831063013 | 63 | 93 | 0.0 | 1.7 | 0.00 | 0.03 | 0.00 | 87 | 1019.0 |
| 20260831061512 | 62 | 49 | 0.0 | 0.0 | 0.00 | 0.03 | 0.00 | 89 | 1018.9 |
| 20260831060010 | 62 | 49 | 0.0 | 0.0 | 0.00 | 0.03 | 0.00 | 91 | 1018.8 |
| 20260831054507 | 61 | 49 | 0.9 | 2.6 | 0.00 | 0.03 | 0.00 | 93 | 1018.6 |
| 20260831053004 | 61 | 49 | 0.9 | 3.5 | 0.00 | 0.03 | 0.00 | 92 | 1018.4 |
| 20260831051602 | 61 | 51 | 0.9 | 2.6 | 0.00 | 0.03 | 0.00 | 93 | 1018.3 |
| 20260831050113 | 61 | 82 | 1.7 | 3.5 | 0.00 | 0.03 | 0.00 | 94 | 1018.2 |
| 20260831044618 | 61 | 60 | 0.9 | 2.6 | 0.00 | 0.03 | 0.00 | 94 | 1018.1 |
| 20260831043055 | 60 | 57 | 0.9 | 3.5 | 0.00 | 0.03 | 0.00 | 93 | 1018.1 |
| 20260831041604 | 60 | 60 | 1.7 | 3.5 | 0.00 | 0.03 | 0.00 | 93 | 1018.0 |
| 20260831040053 | 61 | 42 | 0.9 | 2.6 | 0.00 | 0.03 | 0.00 | 93 | 1017.9 |
| 20260831034553 | 61 | 25 | 0.9 | 3.5 | 0.00 | 0.03 | 0.00 | 93 | 1017.8 |
| 20260831033050 | 61 | 15 | 2.6 | 4.3 | 0.00 | 0.03 | 0.00 | 93 | 1017.8 |
| 20260831031556 | 61 | 14 | 1.7 | 3.5 | 0.00 | 0.03 | 0.00 | 93 | 1017.7 |
| 20260831030056 | 61 | 296 | 0.9 | 1.7 | 0.00 | 0.03 | 0.00 | 93 | 1017.7 |
| 20260831024609 | 62 | 296 | 0.0 | 0.0 | 0.00 | 0.03 | 0.00 | 92 | 1017.6 |
| 20260831023044 | 62 | 296 | 0.0 | 0.0 | 0.00 | 0.03 | 0.00 | 92 | 1017.6 |
| 20260831021545 | 62 | 296 | 0.0 | 0.9 | 0.00 | 0.03 | 0.00 | 93 | 1017.4 |
| 20260831014557 | 62 | 296 | 0.0 | 0.9 | 0.00 | 0.03 | 0.00 | 92 | 1017.2 |
| 20260831013038 | 63 | 296 | 0.9 | 2.6 | 0.00 | 0.03 | 0.00 | 92 | 1017.1 |
| 20260831011538 | 63 | 118 | 0.9 | 2.6 | 0.00 | 0.03 | 0.00 | 92 | 1016.9 |
| 20260831010044 | 63 | 121 | 0.0 | 1.7 | 0.00 | 0.03 | 0.00 | 92 | 1016.9 |
| 20260831004534 | 63 | 121 | 0.0 | 1.7 | 0.00 | 0.03 | 0.00 | 91 | 1016.8 |
| 20260831003031 | 64 | 121 | 0.0 | 3.5 | 0.00 | 0.03 | 0.00 | 90 | 1016.9 |
| 20260831001539 | 64 | 123 | 0.0 | 0.0 | 0.00 | 0.03 | 0.00 | 90 | 1016.9 |
| 20260831000029 | 64 | 123 | 0.0 | 2.6 | 0.00 | 0.03 | 0.00 | 90 | 1016.9 |
| 20260830234541 | 65 | 119 | 0.0 | 3.5 | 0.00 | 0.03 | 0.00 | 90 | 1017.0 |